Home   Weather   London   Past weeks

Flag for United Kingdom Past Weather in London, England, United Kingdom — Yesterday and Last 2 Weeks

Now
61 °F

Sunny.


Feels Like: 61 °F
Forecast: 47 / 57 °F
Wind: 13 mph from Southeast

Location: Northolt

Current Time: Apr 30, 2017 at 4:00:07 pm

Latest Report: Apr 30, 2017 at 2:50 pm


Visibility: 10 mi

Pressure: 29.50 "Hg

Humidity: 45%

Dew Point: 39 °F

Location of LondonLocation

Past Weather in London — Graph

°F

London Temperature Yesterday

Maximum temperature yesterday: 59 °F (at 3:50 pm)
Minimum temperature yesterday: 39 °F (at 4:50 am)
Average temperature yesterday: 51 °F

High & Low Weather Summary for the Past Weeks

 TemperatureHumidityPressure
High64 °F (Apr 30, 11:50 am)100% (Apr 27, 4:50 am)30.63 "Hg (Apr 27, 4:50 am)
Low30 °F (Apr 27, 4:50 am)26% (Apr 18, 3:50 pm)29.47 "Hg (Apr 30, 12:50 pm)
Average49 °F64%30.19 "Hg
* Reported Apr 15 2:50 pm — Apr 30 2:50 pm, London, Weather by CustomWeather, © 2017

Note: Actual official high and low records may vary slightly from our data, if they occured in-between our weather recording intervals... More about our weather records

Advertising

London Weather History for the Previous 24 Hours

Scroll right to see more
 ConditionsComfort  
Time TempWeatherWind HumidityBarometerVisibility
2:50 pm
Sun, Apr 30
61 °FSunny.13 mph45%29.50 "Hg10 mi
1:50 pm61 °FSunny.18 mph45%29.50 "Hg10 mi
12:50 pm63 °FPassing clouds.20 mph39%29.47 "HgN/A
11:50 am64 °FSunny.21 mph37%29.53 "Hg10 mi
10:50 am61 °FSunny.18 mph39%29.56 "Hg10 mi
9:50 am59 °FSunny.16 mph42%29.59 "Hg10 mi
8:50 am55 °FSunny.17 mph51%29.62 "Hg10 mi
7:50 am52 °FScattered clouds.N/A58%29.65 "HgN/A
6:50 am50 °FSunny.9 mph62%29.68 "Hg10 mi
5:50 am48 °FScattered clouds.N/A62%29.68 "HgN/A
4:50 am50 °FOvercast.N/A58%29.71 "HgN/A
3:50 am50 °FOvercast.N/A58%29.74 "HgN/A
2:50 am52 °FOvercast.N/A54%29.77 "HgN/A
1:50 am52 °FOvercast.N/A54%29.77 "HgN/A
12:50 am54 °FOvercast.16 mph51%29.80 "HgN/A
11:50 pm
Sat, Apr 29
54 °FOvercast.14 mph51%29.80 "HgN/A
10:50 pm54 °FOvercast.16 mph54%29.83 "HgN/A
9:50 pm54 °FOvercast.13 mph51%29.83 "HgN/A
8:50 pm55 °FClear.12 mph47%29.86 "Hg10 mi
7:50 pm55 °FScattered clouds.10 mph44%29.86 "HgN/A
6:50 pm57 °FScattered clouds.12 mph44%29.86 "HgN/A
5:50 pm59 °FPassing clouds.13 mph42%29.89 "HgN/A
4:50 pm59 °FScattered clouds.12 mph42%29.89 "HgN/A
Weather by CustomWeather, © 2017

See weather overviewHow to use our weather pages